weather station
Area: 11014 km2
The highest point: Tok (865 m.s.l.)
Total stations: 54
Stations online: 51
Stations offline: 3
Current weather
16°C

Meteorological map - weather stations in Středočeský

. The meteorological maps show weather information from WARIO weather stations

Weather stations Středočeský

 UpdatesNameStatusTemperatureHumidityWind speedWind direction
1.9.2026 01:19Vestec16.7 °C64.1 %5.6 m/s NW
1.9.2026 01:19Nupaky16.6 °C64.5 %3.5 m/s SW
1.9.2026 01:19Barochov15.9 °C76.3 %2.5 m/s SW
1.9.2026 01:19Beroun16.1 °C66.6 %2.2 m/s W
1.9.2026 01:19Beroun15.8 °C70.5 %1.4 m/s SW
1.9.2026 01:20Bořanovice15.9 °C76.2 %1.2 m/s SW
1.9.2026 01:19Břešťany16.6 °C76.6 %1.8 m/s E
22.7.2026 07:44Brandýs nad Labem19.6 °C61.6 %0.0 m/s E
1.9.2026 01:20Bratronice14.0 °C75.2 %1.3 m/s SW
1.9.2026 01:19Králův Dvůr16.4 °C73.9 %2.5 m/s SW
1.9.2026 01:19Černošice14.1 °C75.4 %0.7 m/s S
1.9.2026 01:19Chotětov15.4 °C78.8 %0.0 m/s SW
1.9.2026 01:19Přítoky17.1 °C65.1 %2.8 m/s SE
1.9.2026 01:20Dobřejovice16.0 °C65.1 %1.3 m/s E
1.9.2026 01:19Dolní Břežany16.2 °C61.3 %3.8 m/s E
1.9.2026 01:19Kondrac-Dub15.0 °C74.3 %1.1 m/s SW
27.7.2026 01:28Milovice19.3 °C55.6 %0.0 m/s N
1.9.2026 01:20Horní Bezděkov14.7 °C72.8 %2.8 m/s E
1.9.2026 01:19Hovorčovice16.3 °C100.0 %0.0 m/s SE
1.9.2026 01:20Žebrák15.5 °C69.8 %0.0 m/s W
1.9.2026 01:20Jiřetice16.0 °C73.3 %2.1 m/s S
1.9.2026 01:20Kosova Hora16.4 °C68.6 %1.0 m/s SW
1.9.2026 01:19Kostelec nad Černými lesy19.3 °C55.3 %1.7 m/s NE
1.9.2026 01:19Krásná Hora nad Vltavou16.0 °C65.6 %0.9 m/s SW
1.9.2026 01:19Květnice16.5 °C63.6 %2.1 m/s E
1.9.2026 01:20Krušovice15.0 °C79.0 %1.9 m/s SW
1.9.2026 01:19Zdice15.9 °C68.6 %1.6 m/s SW
1.9.2026 01:19Měšice17.2 °C64.1 %3.1 m/s W
1.9.2026 01:19Vestec17.4 °C64.1 %3.5 m/s W
1.9.2026 01:19Jince15.3 °C73.1 %1.1 m/s NW
1.9.2026 01:19Osnice15.8 °C62.6 %1.3 m/s W
1.9.2026 01:20Srby14.8 °C72.5 %1.2 m/s SW
1.9.2026 01:19Sulice15.6 °C68.9 %2.1 m/s SE
1.9.2026 01:20Milín13.2 °C83.8 %0.8 m/s W
1.9.2026 01:19Líbeznice16.7 °C65.8 %4.2 m/s W
1.9.2026 01:20Mníšek pod Brdy15.5 °C62.3 %3.0 m/s NW
1.9.2026 01:20Mrač16.3 °C64.2 %1.9 m/s W
1.9.2026 01:19Orlov13.3 °C90.1 %1.8 m/s NW
1.9.2026 01:20Příbram14.4 °C67.6 %1.0 m/s W
1.9.2026 01:20Suchodol15.4 °C86.6 %2.0 m/s SW
1.9.2026 01:19Říčany15.7 °C72.7 %0.8 m/s NW
1.9.2026 01:20Střemy15.2 °C76.3 %1.5 m/s W
1.9.2026 01:19Toušice17.3 °C65.0 %0.0 m/s NE
1.9.2026 01:20Třebonín16.5 °C69.1 %0.8 m/s S
1.9.2026 01:19Třebsko12.7 °C73.5 %0.0 m/s S
1.9.2026 01:19Unhošť14.8 °C74.9 %0.6 m/s S
17.8.2026 14:51Všešímy20.3 °C84.7 %5.1 m/s NE
1.9.2026 01:19Všetaty17.3 °C64.7 %1.3 m/s W
1.9.2026 01:20Pravonín14.1 °C67.0 %1.7 m/s NW
1.9.2026 01:20Zápy16.9 °C68.1 %1.5 m/s SW
1.9.2026 01:19Zdice16.0 °C74.8 %2.1 m/s SW
1.9.2026 01:19Zduchovice15.4 °C79.3 %1.2 m/s SW
1.9.2026 01:20Zibohlavy17.5 °C64.0 %0.0 m/s S
1.9.2026 01:19Zichovec15.7 °C63.1 %1.6 m/s W
Email notifications
Enter your email address to subscribe to notifications about news at warioweather.com. Your email address will not be used for any purpose other than sending these emails and will not be provided to any third party. The subscription can be ended at any time.
All data are only indicative. The portal administrator has no responsibility for potentially incorrect data and related consequences. Publishing or further sharing of content from www.warioweather.com is only allowed with written consent from WANET s.r.o.